SIC0106 LICA-LIMF

Flight info

Callsign SIC0106
Flight time 1h 27m
Altitude 38000
Route ARBUM DCT EVINO DCT ISKIA DCT NEKPI DCT TAQ DCT ROSKI/N0454F390 DCT ELKAP DCT ELB/N0455F380 DCT UNITA DCT IXITO DCT ANAKI DCT LAGEN
Aircraft B38M/M-SDE1FGHILORVWXY/HB1

Departure

Time 2026-05-08 08:17
Airport Lamezia Terme Sant'Eufemia International Airport (LICA)

Arrival

Time 2026-05-08 09:45
Airport Turin Airport (LIMF)
Time Latitude Longitude Altitude Speed Heading
2026-05-08 07:52 38.90810 16.24981 40 ft 0 kts 312°
2026-05-08 08:11 38.90810 16.24980 41 ft 1 kts 310°
2026-05-08 08:11 38.90814 16.24967 38 ft 1 kts 276°
2026-05-08 08:11 38.90811 16.24962 38 ft 0 kts 234°
2026-05-08 08:11 38.90801 16.24954 40 ft 4 kts 212°
2026-05-08 08:12 38.90762 16.24931 41 ft 7 kts 188°
2026-05-08 08:12 38.90719 16.24952 41 ft 7 kts 143°
2026-05-08 08:12 38.90688 16.25004 40 ft 8 kts 115°
2026-05-08 08:12 38.90672 16.25076 42 ft 9 kts 101°
2026-05-08 08:13 38.90661 16.25170 43 ft 13 kts 99°
2026-05-08 08:13 38.90644 16.25304 44 ft 17 kts 99°
2026-05-08 08:13 38.90625 16.25459 45 ft 18 kts 98°
2026-05-08 08:13 38.90604 16.25629 46 ft 20 kts 98°
2026-05-08 08:14 38.90583 16.25808 47 ft 21 kts 98°
2026-05-08 08:14 38.90561 16.25997 48 ft 22 kts 98°
2026-05-08 08:14 38.90513 16.26174 50 ft 16 kts 141°
2026-05-08 08:14 38.90506 16.26180 50 ft 0 kts 147°
2026-05-08 08:15 38.90497 16.26188 50 ft 4 kts 147°
2026-05-08 08:16 38.90463 16.26219 49 ft 9 kts 144°
2026-05-08 08:16 38.90392 16.26262 47 ft 12 kts 168°
2026-05-08 08:16 38.90324 16.26187 50 ft 31 kts 260°
2026-05-08 08:16 38.90380 16.25567 46 ft 108 kts 278°
2026-05-08 08:17 38.90536 16.24347 109 ft 159 kts 280°
2026-05-08 08:17 38.90698 16.22896 674 ft 177 kts 278°
2026-05-08 08:17 38.90890 16.21370 1677 ft 165 kts 278°
2026-05-08 08:17 38.91071 16.19829 2289 ft 185 kts 278°
2026-05-08 08:18 38.91271 16.18092 2809 ft 209 kts 278°
2026-05-08 08:18 38.91494 16.16125 3373 ft 235 kts 278°
2026-05-08 08:18 38.91735 16.13984 4207 ft 250 kts 278°
2026-05-08 08:18 38.92350 16.11855 5174 ft 258 kts 304°
2026-05-08 08:19 38.93491 16.10069 6324 ft 262 kts 307°
2026-05-08 08:19 38.94646 16.08261 7302 ft 266 kts 307°
2026-05-08 08:19 38.95835 16.06420 8340 ft 269 kts 306°
2026-05-08 08:19 38.97042 16.04566 9368 ft 271 kts 306°
2026-05-08 08:20 38.98265 16.02698 10304 ft 276 kts 306°
2026-05-08 08:20 38.99543 16.00753 10849 ft 294 kts 306°
2026-05-08 08:20 39.00910 15.98674 11265 ft 314 kts 306°
2026-05-08 08:20 39.02353 15.96482 11821 ft 328 kts 306°
2026-05-08 08:21 39.04067 15.94498 12593 ft 339 kts 324°
2026-05-08 08:21 39.06197 15.93146 13472 ft 345 kts 329°
2026-05-08 08:21 39.08394 15.91810 14210 ft 351 kts 330°
2026-05-08 08:21 39.10618 15.90476 14981 ft 354 kts 330°
2026-05-08 08:22 39.12844 15.89151 15698 ft 359 kts 330°
2026-05-08 08:22 39.15121 15.87801 16428 ft 363 kts 330°
2026-05-08 08:22 39.17421 15.86439 17163 ft 367 kts 330°
2026-05-08 08:22 39.19762 15.85053 17878 ft 371 kts 330°
2026-05-08 08:23 39.22132 15.83649 18534 ft 375 kts 330°
2026-05-08 08:23 39.24513 15.82237 19131 ft 379 kts 330°
2026-05-08 08:23 39.26909 15.80805 19724 ft 381 kts 328°
2026-05-08 08:23 39.29065 15.78859 20283 ft 378 kts 315°
2026-05-08 08:24 39.31089 15.76655 20824 ft 383 kts 316°
2026-05-08 08:24 39.33110 15.74462 21396 ft 386 kts 316°
2026-05-08 08:24 39.35169 15.72207 21961 ft 390 kts 316°
2026-05-08 08:24 39.37244 15.69927 22518 ft 394 kts 316°
2026-05-08 08:25 39.39339 15.67618 23072 ft 397 kts 316°
2026-05-08 08:25 39.41452 15.65287 23610 ft 401 kts 316°
2026-05-08 08:25 39.43586 15.62931 23979 ft 407 kts 316°
2026-05-08 08:25 39.45747 15.60542 24413 ft 410 kts 316°
2026-05-08 08:26 39.47930 15.58128 24881 ft 413 kts 316°
2026-05-08 08:26 39.50127 15.55696 25331 ft 416 kts 316°
2026-05-08 08:26 39.52335 15.53249 25778 ft 419 kts 316°
2026-05-08 08:26 39.54556 15.50785 26205 ft 422 kts 316°
2026-05-08 08:27 39.56796 15.48298 26640 ft 425 kts 316°
2026-05-08 08:27 39.59035 15.45812 27062 ft 428 kts 316°
2026-05-08 08:27 39.61300 15.43292 27476 ft 430 kts 316°
2026-05-08 08:27 39.63578 15.40757 27883 ft 433 kts 317°
2026-05-08 08:28 39.65869 15.38205 28287 ft 436 kts 317°
2026-05-08 08:28 39.68174 15.35635 28683 ft 439 kts 317°
2026-05-08 08:28 39.70498 15.33040 29070 ft 441 kts 316°
2026-05-08 08:28 39.72644 15.30205 29431 ft 442 kts 310°
2026-05-08 08:29 39.74726 15.27236 29786 ft 446 kts 310°
2026-05-08 08:29 39.76795 15.24280 30049 ft 450 kts 310°
2026-05-08 08:29 39.78926 15.21226 30410 ft 451 kts 309°
2026-05-08 08:29 39.81007 15.18238 30806 ft 451 kts 309°
2026-05-08 08:30 39.83109 15.15219 31202 ft 452 kts 309°
2026-05-08 08:30 39.85208 15.12200 31578 ft 452 kts 309°
2026-05-08 08:30 39.89405 15.06156 32596 ft 446 kts 308°
2026-05-08 08:31 39.91480 15.03163 33193 ft 442 kts 307°
2026-05-08 08:31 39.93531 15.00204 33770 ft 438 kts 308°
2026-05-08 08:31 39.95575 14.97251 34058 ft 440 kts 308°
2026-05-08 08:31 39.97626 14.94284 34387 ft 439 kts 308°
2026-05-08 08:32 39.98970 14.92338 34636 ft 439 kts 308°
2026-05-08 08:32 40.01008 14.89386 35048 ft 436 kts 307°
2026-05-08 08:32 40.03035 14.86446 35427 ft 434 kts 307°
2026-05-08 08:32 40.05046 14.83528 35772 ft 433 kts 307°
2026-05-08 08:33 40.07060 14.80601 36141 ft 431 kts 307°
2026-05-08 08:33 40.09062 14.77690 36508 ft 431 kts 307°
2026-05-08 08:33 40.11057 14.74786 36879 ft 429 kts 307°
2026-05-08 08:33 40.13045 14.71889 37206 ft 428 kts 307°
2026-05-08 08:34 40.15030 14.68994 37514 ft 427 kts 307°
2026-05-08 08:34 40.17011 14.66102 37802 ft 426 kts 307°
2026-05-08 08:34 40.18988 14.63214 37986 ft 426 kts 307°
2026-05-08 08:34 40.20963 14.60324 37958 ft 426 kts 307°
2026-05-08 08:35 40.24910 14.54543 37965 ft 428 kts 307°
2026-05-08 08:35 40.28853 14.48758 37953 ft 427 kts 307°
2026-05-08 08:36 40.32805 14.42947 37848 ft 428 kts 307°
2026-05-08 08:36 40.36745 14.37143 37967 ft 428 kts 307°
2026-05-08 08:37 40.40700 14.31306 37953 ft 427 kts 307°
2026-05-08 08:37 40.44653 14.25460 37915 ft 427 kts 307°
2026-05-08 08:38 40.48583 14.19639 37970 ft 428 kts 307°
2026-05-08 08:38 40.52521 14.13792 37953 ft 427 kts 307°
2026-05-08 08:39 40.56449 14.07950 37939 ft 427 kts 307°
2026-05-08 08:39 40.60383 14.02090 37947 ft 427 kts 307°
2026-05-08 08:40 40.64321 13.96212 37943 ft 427 kts 307°
2026-05-08 08:40 40.68209 13.90400 37944 ft 427 kts 307°
2026-05-08 08:41 40.72554 13.84991 37992 ft 430 kts 312°
2026-05-08 08:41 40.76916 13.79594 37945 ft 430 kts 312°
2026-05-08 08:42 40.81266 13.74166 37943 ft 430 kts 312°
2026-05-08 08:42 40.85605 13.68736 37944 ft 430 kts 312°
2026-05-08 08:43 40.89950 13.63290 37949 ft 430 kts 312°
2026-05-08 08:43 40.94285 13.57846 37950 ft 430 kts 312°
2026-05-08 08:44 40.98621 13.52390 37962 ft 431 kts 312°
2026-05-08 08:44 41.02979 13.46894 37962 ft 433 kts 312°
2026-05-08 08:45 41.07334 13.41393 37954 ft 432 kts 312°
2026-05-08 08:45 41.11688 13.35883 37952 ft 432 kts 312°
2026-05-08 08:46 41.16016 13.30395 37957 ft 432 kts 311°
2026-05-08 08:46 41.20348 13.24890 37959 ft 432 kts 311°
2026-05-08 08:47 41.24692 13.19361 37963 ft 434 kts 312°
2026-05-08 08:47 41.29065 13.13784 37965 ft 436 kts 312°
2026-05-08 08:48 41.33388 13.08164 37957 ft 432 kts 307°
2026-05-08 08:48 41.37293 13.02173 37969 ft 432 kts 307°
2026-05-08 08:49 41.41270 12.96185 37990 ft 433 kts 308°
2026-05-08 08:49 41.45266 12.90182 37934 ft 432 kts 307°
2026-05-08 08:50 41.49239 12.84200 37956 ft 434 kts 307°
2026-05-08 08:50 41.53241 12.78164 37929 ft 435 kts 307°
2026-05-08 08:51 41.57240 12.72120 37960 ft 433 kts 307°
2026-05-08 08:51 41.61206 12.66113 37977 ft 433 kts 307°
2026-05-08 08:52 41.65172 12.60095 37972 ft 433 kts 307°
2026-05-08 08:52 41.69151 12.54045 37966 ft 433 kts 307°
2026-05-08 08:53 41.73064 12.48083 37996 ft 433 kts 307°
2026-05-08 08:53 41.77068 12.41970 37963 ft 435 kts 307°
2026-05-08 08:54 41.81023 12.35918 37935 ft 433 kts 307°
2026-05-08 08:54 41.84984 12.29847 37939 ft 433 kts 307°
2026-05-08 08:55 41.88912 12.23812 37937 ft 433 kts 307°
2026-05-08 08:55 41.92843 12.17762 38128 ft 433 kts 307°
2026-05-08 08:56 41.96779 12.11690 38134 ft 433 kts 307°
2026-05-08 08:56 42.00715 12.05607 38134 ft 436 kts 307°
2026-05-08 08:57 42.04714 11.99414 38086 ft 434 kts 307°
2026-05-08 08:57 42.08667 11.93278 38056 ft 434 kts 307°
2026-05-08 08:58 42.12627 11.87121 38015 ft 434 kts 307°
2026-05-08 08:58 42.16507 11.81076 37978 ft 434 kts 307°
2026-05-08 08:59 42.20475 11.74883 37957 ft 434 kts 307°
2026-05-08 08:59 42.24628 11.68934 37966 ft 436 kts 309°
2026-05-08 09:00 42.28780 11.62999 37967 ft 432 kts 309°
2026-05-08 09:00 42.32899 11.57089 37972 ft 432 kts 309°
2026-05-08 09:01 42.36950 11.51262 37974 ft 432 kts 309°
2026-05-08 09:01 42.41048 11.45358 37972 ft 432 kts 309°
2026-05-08 09:02 42.45159 11.39421 37983 ft 432 kts 309°
2026-05-08 09:02 42.49261 11.33486 37975 ft 435 kts 309°
2026-05-08 09:03 42.53392 11.27496 37978 ft 434 kts 309°
2026-05-08 09:03 42.57507 11.21518 37956 ft 433 kts 308°
2026-05-08 09:04 42.61615 11.15537 37948 ft 433 kts 308°
2026-05-08 09:04 42.65718 11.09551 37933 ft 433 kts 308°
2026-05-08 09:05 42.69393 11.03174 37916 ft 422 kts 290°
2026-05-08 09:05 42.70229 10.99418 37991 ft 417 kts 276°
2026-05-08 09:05 42.70593 10.95513 37939 ft 418 kts 274°
2026-05-08 09:06 42.71105 10.87626 37942 ft 418 kts 272°
2026-05-08 09:06 42.71477 10.79791 37946 ft 417 kts 271°
2026-05-08 09:07 42.71804 10.71922 37956 ft 417 kts 271°
2026-05-08 09:07 42.72120 10.64069 37961 ft 417 kts 271°
2026-05-08 09:08 42.72431 10.56195 37989 ft 417 kts 271°
2026-05-08 09:08 42.72735 10.48353 37968 ft 414 kts 271°
2026-05-08 09:09 42.73954 10.40728 37977 ft 420 kts 295°
2026-05-08 09:09 42.75652 10.37452 38007 ft 429 kts 309°
2026-05-08 09:09 42.77839 10.34665 37982 ft 435 kts 314°
2026-05-08 09:10 42.82485 10.29272 37976 ft 439 kts 315°
2026-05-08 09:10 42.87176 10.24021 37996 ft 439 kts 316°
2026-05-08 09:11 42.91908 10.18772 37997 ft 439 kts 316°
2026-05-08 09:11 42.96633 10.13528 37991 ft 438 kts 316°
2026-05-08 09:12 43.01369 10.08261 37998 ft 440 kts 316°
2026-05-08 09:12 43.06121 10.02966 37988 ft 441 kts 316°
2026-05-08 09:13 43.10874 9.97659 38000 ft 441 kts 316°
2026-05-08 09:13 43.15623 9.92345 37996 ft 441 kts 316°
2026-05-08 09:14 43.20359 9.87035 38003 ft 441 kts 316°
2026-05-08 09:14 43.25105 9.81701 38017 ft 442 kts 316°
2026-05-08 09:15 43.29852 9.76357 38001 ft 440 kts 315°
2026-05-08 09:15 43.34558 9.71047 38004 ft 441 kts 315°
2026-05-08 09:16 43.39282 9.65706 38013 ft 440 kts 315°
2026-05-08 09:16 43.44012 9.60348 38027 ft 441 kts 315°
2026-05-08 09:17 43.48762 9.54954 38014 ft 443 kts 315°
2026-05-08 09:17 43.53506 9.49557 38013 ft 443 kts 315°
2026-05-08 09:18 43.58237 9.44163 38025 ft 443 kts 315°
2026-05-08 09:18 43.62976 9.38748 37795 ft 441 kts 315°
2026-05-08 09:19 43.64541 9.36957 37109 ft 445 kts 315°
2026-05-08 09:19 43.66956 9.34191 35995 ft 455 kts 315°
2026-05-08 09:19 43.69393 9.31397 35170 ft 458 kts 315°
2026-05-08 09:19 43.71845 9.28584 34547 ft 457 kts 315°
2026-05-08 09:20 43.74283 9.25782 33892 ft 457 kts 315°
2026-05-08 09:20 43.76745 9.22954 32992 ft 461 kts 316°
2026-05-08 09:20 43.79212 9.20113 32085 ft 464 kts 316°
2026-05-08 09:20 43.81695 9.17251 31395 ft 463 kts 316°
2026-05-08 09:21 43.84153 9.14414 30865 ft 458 kts 317°
2026-05-08 09:21 43.86587 9.11603 30345 ft 453 kts 317°
2026-05-08 09:22 44.00805 8.95123 26636 ft 434 kts 317°
2026-05-08 09:23 44.03105 8.92449 26070 ft 431 kts 317°
2026-05-08 09:23 44.05389 8.89791 25508 ft 428 kts 317°
2026-05-08 09:23 44.07659 8.87146 24944 ft 425 kts 317°
2026-05-08 09:23 44.09918 8.84512 24355 ft 423 kts 317°
2026-05-08 09:24 44.12158 8.81898 23821 ft 420 kts 317°
2026-05-08 09:24 44.14388 8.79283 23204 ft 417 kts 317°
2026-05-08 09:24 44.16606 8.76679 22564 ft 414 kts 317°
2026-05-08 09:24 44.18793 8.74107 22062 ft 409 kts 317°
2026-05-08 09:25 44.20929 8.71600 21501 ft 394 kts 317°
2026-05-08 09:25 44.23007 8.69159 21042 ft 388 kts 317°
2026-05-08 09:25 44.25060 8.66747 20575 ft 385 kts 317°
2026-05-08 09:25 44.27110 8.64335 20103 ft 383 kts 317°
2026-05-08 09:26 44.29133 8.61952 19641 ft 381 kts 317°
2026-05-08 09:26 44.31147 8.59577 19147 ft 379 kts 317°
2026-05-08 09:26 44.33136 8.57231 18698 ft 378 kts 317°
2026-05-08 09:26 44.35140 8.54864 18230 ft 376 kts 317°
2026-05-08 09:27 44.37158 8.52478 17720 ft 374 kts 318°
2026-05-08 09:27 44.39109 8.50155 17255 ft 371 kts 316°
2026-05-08 09:27 44.40814 8.47472 16766 ft 368 kts 308°
2026-05-08 09:27 44.42471 8.44769 16347 ft 364 kts 309°
2026-05-08 09:28 44.44127 8.42111 15940 ft 361 kts 309°
2026-05-08 09:28 44.45779 8.39483 15518 ft 359 kts 309°
2026-05-08 09:28 44.47427 8.36876 15104 ft 356 kts 310°
2026-05-08 09:28 44.49062 8.34293 14707 ft 354 kts 310°
2026-05-08 09:29 44.50680 8.31737 14491 ft 346 kts 310°
2026-05-08 09:29 44.52248 8.29259 14339 ft 336 kts 310°
2026-05-08 09:29 44.53781 8.26833 14180 ft 327 kts 310°
2026-05-08 09:29 44.55271 8.24475 14028 ft 318 kts 310°
2026-05-08 09:30 44.56714 8.22188 13883 ft 310 kts 309°
2026-05-08 09:30 44.58115 8.19951 13667 ft 303 kts 309°
2026-05-08 09:30 44.59496 8.17720 13307 ft 302 kts 310°
2026-05-08 09:30 44.60872 8.15499 12970 ft 301 kts 310°
2026-05-08 09:31 44.62240 8.13289 12653 ft 298 kts 310°
2026-05-08 09:31 44.63596 8.11099 12353 ft 295 kts 310°
2026-05-08 09:31 44.64926 8.08947 12201 ft 287 kts 310°
2026-05-08 09:31 44.66215 8.06863 12071 ft 279 kts 310°
2026-05-08 09:32 44.67467 8.04838 11927 ft 271 kts 310°
2026-05-08 09:32 44.68694 8.02857 11649 ft 269 kts 310°
2026-05-08 09:32 44.69920 8.00875 11341 ft 268 kts 310°
2026-05-08 09:32 44.71140 7.98900 11047 ft 267 kts 310°
2026-05-08 09:33 44.72341 7.96956 10756 ft 266 kts 311°
2026-05-08 09:33 44.73553 7.94994 10463 ft 265 kts 311°
2026-05-08 09:33 44.74748 7.93031 10169 ft 264 kts 307°
2026-05-08 09:33 44.75513 7.90718 9833 ft 263 kts 279°
2026-05-08 09:34 44.75458 7.88185 9500 ft 260 kts 255°
2026-05-08 09:34 44.74897 7.85820 9237 ft 256 kts 250°
2026-05-08 09:34 44.74293 7.83465 8989 ft 254 kts 249°
2026-05-08 09:34 44.73669 7.81116 8821 ft 259 kts 249°
2026-05-08 09:35 44.73029 7.78740 8699 ft 264 kts 250°
2026-05-08 09:35 44.72755 7.76210 8514 ft 263 kts 277°
2026-05-08 09:35 44.73354 7.73818 8345 ft 261 kts 304°
2026-05-08 09:35 44.74530 7.71880 8201 ft 262 kts 313°
2026-05-08 09:36 44.75766 7.70018 8040 ft 259 kts 314°
2026-05-08 09:36 44.76990 7.68198 7859 ft 252 kts 314°
2026-05-08 09:36 44.78187 7.66432 7693 ft 246 kts 315°
2026-05-08 09:36 44.79354 7.64721 7531 ft 239 kts 315°
2026-05-08 09:37 44.80589 7.63249 7332 ft 236 kts 336°
2026-05-08 09:37 44.82161 7.62749 7124 ft 232 kts
2026-05-08 09:37 44.83773 7.62784 6964 ft 232 kts
2026-05-08 09:37 44.85392 7.62840 6785 ft 233 kts
2026-05-08 09:38 44.87016 7.62913 6539 ft 234 kts
2026-05-08 09:38 44.88648 7.63000 6259 ft 233 kts
2026-05-08 09:38 44.90254 7.63090 5994 ft 231 kts
2026-05-08 09:38 44.91837 7.63182 5755 ft 227 kts
2026-05-08 09:39 44.93400 7.63275 5557 ft 223 kts
2026-05-08 09:39 44.94945 7.63369 5388 ft 223 kts
2026-05-08 09:39 44.96500 7.63467 5217 ft 224 kts
2026-05-08 09:39 44.98034 7.63567 5059 ft 217 kts
2026-05-08 09:40 44.99515 7.63661 4777 ft 212 kts
2026-05-08 09:40 45.00974 7.63752 4440 ft 207 kts
2026-05-08 09:40 45.02380 7.63842 4145 ft 197 kts
2026-05-08 09:40 45.03672 7.63925 3908 ft 180 kts
2026-05-08 09:41 45.04919 7.64002 3680 ft 177 kts
2026-05-08 09:41 45.06108 7.64077 3458 ft 173 kts
2026-05-08 09:41 45.07327 7.64154 3259 ft 173 kts
2026-05-08 09:41 45.08515 7.64230 3034 ft 171 kts
2026-05-08 09:42 45.09635 7.64299 2861 ft 157 kts
2026-05-08 09:42 45.10712 7.64369 2637 ft 152 kts
2026-05-08 09:42 45.11761 7.64435 2422 ft 151 kts
2026-05-08 09:42 45.12804 7.64502 2206 ft 150 kts
2026-05-08 09:43 45.13848 7.64568 2009 ft 150 kts
2026-05-08 09:43 45.14889 7.64635 1791 ft 150 kts
2026-05-08 09:43 45.15930 7.64701 1593 ft 150 kts
2026-05-08 09:43 45.16976 7.64766 1384 ft 150 kts
2026-05-08 09:44 45.18016 7.64833 1158 ft 150 kts
2026-05-08 09:44 45.19058 7.64899 981 ft 148 kts
2026-05-08 09:44 45.19949 7.64956 975 ft 96 kts
2026-05-08 09:44 45.20415 7.64985 993 ft 56 kts
2026-05-08 09:45 45.20759 7.65003 996 ft 33 kts 353°
2026-05-08 09:45 45.20856 7.64927 998 ft 0 kts 302°
2026-05-08 09:45 45.20866 7.64901 1000 ft 9 kts 292°
2026-05-08 09:45 45.20853 7.64791 999 ft 15 kts 233°
2026-05-08 09:46 45.20745 7.64741 998 ft 19 kts 187°
2026-05-08 09:46 45.20603 7.64729 992 ft 22 kts 183°
2026-05-08 09:46 45.20441 7.64719 988 ft 25 kts 182°
2026-05-08 09:46 45.20283 7.64711 985 ft 24 kts 182°
2026-05-08 09:47 45.20130 7.64701 981 ft 22 kts 182°
2026-05-08 09:47 45.19999 7.64693 978 ft 19 kts 182°
2026-05-08 09:47 45.19864 7.64686 975 ft 18 kts 182°
2026-05-08 09:47 45.19728 7.64696 972 ft 21 kts 178°
2026-05-08 09:48 45.19579 7.64688 969 ft 22 kts 181°
2026-05-08 09:48 45.19429 7.64679 966 ft 22 kts 182°
2026-05-08 09:48 45.19395 7.64670 964 ft 4 kts 197°
2026-05-08 09:48 45.19359 7.64639 965 ft 8 kts 215°
2026-05-08 09:49 45.19333 7.64579 964 ft 7 kts 256°
2026-05-08 09:49 45.19320 7.64506 960 ft 0 kts 256°